Hibbing, MN

9:11 PM CDT on September 29, 2016 (GMT -0500)
Chisholm-hibbing

Weather History for KHIB - March, 2012

Change the Weather History Date:

Saturday, March 24, 2012

  Actual Average Record
Temperature  
Mean Temperature 50 °F -  
Max Temperature 66 °F 37 °F 66 °F (2007)
Min Temperature 35 °F 15 °F -31 °F (1965)
Degree Days  
Heating Degree Days 14    
Moisture  
Dew Point 45 °F    
Average Humidity 91    
Maximum Humidity 100    
Minimum Humidity 61    
Precipitation  
Precipitation 0.01 in - - ()
Sea Level Pressure  
Sea Level Pressure 29.98 in    
Wind  
Wind Speed 5 mph (WNW)    
Max Wind Speed 22 mph    
Max Gust Speed 28 mph    
Visibility 6 miles    
Events Fog    
Averages and records for this station are not official NWS values.
T = Trace of Precipitation, MM = Missing Value Source: NWS Daily Summary

Daily Weather History Graph

Daily Weather History Graph

Search for Another Location

Airport or City:

Trip Planner

Search our weather history database for the weather conditions in past years. The results will help you decide how hot, cold, wet, or windy it might be!

Date:

Astronomy

Mar. 24, 2012 Rise Set
Actual Time 7:05 AM CDT 7:30 PM CDT
Civil Twilight 6:34 AM CDT 8:01 PM CDT
Nautical Twilight 5:58 AM CDT 8:37 PM CDT
Astronomical Twilight 5:20 AM CDT 9:15 PM CDT
Moon 7:33 AM CDT (3/24) 10:04 PM CDT (3/24)
Length of Visible Light 13h 26m
Length of Day
12h 25m
Waxing Crescent, 4% of the Moon is Illuminated
Mar 24
Waxing Crescent
Mar 30
First Quarter
Apr 6
Full
Apr 13
Last Quarter
Apr 21
New

Hourly Weather History & Observations

Time (CDT) Temp. Windchill Dew Point Humidity Pressure Visibility Wind Dir Wind Speed Gust Speed Precip Events Conditions
12:18 AM 48.2 °F - 48.2 °F 100% 29.94 in 10.0 mi SSE 4.6 mph - N/A   Overcast
12:53 AM 48.0 °F - 48.0 °F 100% 29.97 in 4.0 mi South 4.6 mph - N/A   Overcast
1:02 AM 48.2 °F - 48.2 °F 100% 29.94 in 2.5 mi South 3.5 mph - N/A   Overcast
1:31 AM 46.4 °F 44.3 °F 46.4 °F 100% 29.94 in 1.8 mi South 4.6 mph - N/A   Overcast
1:53 AM 46.9 °F - 46.9 °F 100% 29.97 in 1.2 mi SSE 3.5 mph - N/A   Overcast
2:17 AM 46.4 °F 45.2 °F 46.4 °F 100% 29.94 in 0.8 mi South 3.5 mph - 0.01 in   Mist
2:26 AM 46.4 °F 45.2 °F 46.4 °F 100% 29.94 in 1.2 mi South 3.5 mph - 0.01 in   Overcast
2:44 AM 46.4 °F - 46.4 °F 100% 29.94 in 0.8 mi Calm Calm - 0.01 in   Mist
2:53 AM 46.0 °F 44.8 °F 46.0 °F 100% 29.96 in 0.8 mi South 3.5 mph - 0.01 in   Mist
3:14 AM 46.4 °F 45.2 °F 46.4 °F 100% 29.94 in 1.0 mi South 3.5 mph - N/A   Mist
3:53 AM 45.0 °F - 45.0 °F 100% 29.96 in 0.8 mi Calm Calm - N/A   Mist
4:23 AM 44.6 °F - 44.6 °F 100% 29.93 in 1.5 mi Calm Calm - N/A   Overcast
4:32 AM 44.6 °F - 44.6 °F 100% 29.94 in 2.0 mi Calm Calm - N/A   Overcast
4:44 AM 44.6 °F - 44.6 °F 100% 29.94 in 1.8 mi Calm Calm - N/A   Overcast
4:53 AM 45.0 °F - 44.1 °F 97% 29.96 in 2.0 mi Calm Calm - N/A   Overcast
5:21 AM 44.6 °F - 44.6 °F 100% 29.94 in 1.0 mi Calm Calm - N/A   Overcast
5:53 AM 44.1 °F - 44.1 °F 100% 29.96 in 1.0 mi Calm Calm - N/A   Mist
6:00 AM 44.6 °F - 44.6 °F 100% 29.94 in 0.8 mi Calm Calm - N/A   Mist
6:53 AM 44.1 °F - 44.1 °F 100% 29.96 in 0.5 mi Calm Calm - N/A Fog Fog
7:13 AM 44.6 °F - 44.6 °F 100% 29.95 in 0.2 mi Calm Calm - N/A Fog Fog
7:53 AM 44.1 °F - 44.1 °F 100% 29.99 in 0.2 mi Calm Calm - N/A Fog Fog
8:05 AM 44.6 °F - 44.6 °F 100% 29.96 in 0.5 mi Calm Calm - N/A Fog Fog
8:25 AM 44.6 °F - 44.6 °F 100% 29.96 in 0.2 mi Calm Calm - N/A Fog Fog
8:53 AM 45.0 °F 42.6 °F 44.1 °F 97% 30.00 in 0.2 mi West 4.6 mph - N/A Fog Fog
9:01 AM 44.6 °F - 44.6 °F 100% 29.97 in 0.5 mi Calm Calm - N/A Fog Fog
9:17 AM 44.6 °F - 44.6 °F 100% 29.97 in 1.0 mi Calm Calm - N/A   Overcast
9:28 AM 44.6 °F - 44.6 °F 100% 29.96 in 3.0 mi Calm Calm - N/A   Overcast
9:53 AM 45.0 °F - 45.0 °F 100% 29.99 in 9.0 mi Calm Calm - N/A   Overcast
10:53 AM 46.9 °F - 46.0 °F 97% 29.98 in 10.0 mi SSW 4.6 mph - N/A   Overcast
11:36 AM 48.2 °F - 48.2 °F 100% 29.96 in 10.0 mi West 4.6 mph - N/A   Overcast
11:53 AM 50.0 °F - 48.0 °F 93% 29.98 in 10.0 mi SW 3.5 mph - N/A   Overcast
12:23 PM 51.8 °F - 48.2 °F 88% 29.95 in 10.0 mi Variable 4.6 mph - N/A   Overcast
12:53 PM 55.0 °F - 50.0 °F 83% 29.97 in 10.0 mi Variable 3.5 mph - N/A   Overcast
1:29 PM 57.2 °F - 51.8 °F 82% 29.93 in 10.0 mi WSW 5.8 mph - N/A   Mostly Cloudy
1:53 PM 60.1 °F - 52.0 °F 75% 29.95 in 10.0 mi Variable 6.9 mph - N/A   Mostly Cloudy
2:53 PM 64.0 °F - 51.1 °F 63% 29.93 in 10.0 mi West 9.2 mph - N/A   Scattered Clouds
3:53 PM 64.9 °F - 51.1 °F 61% 29.94 in 10.0 mi NW 11.5 mph 20.7 mph N/A   Overcast
4:53 PM 64.9 °F - 51.1 °F 61% 29.95 in 10.0 mi NW 12.7 mph - N/A   Overcast
5:42 PM 60.8 °F - 51.8 °F 72% 29.96 in 10.0 mi NNW 21.9 mph 26.5 mph N/A   Overcast
5:53 PM 57.9 °F - 51.1 °F 78% 29.99 in 10.0 mi NNW 17.3 mph - N/A   Overcast
6:12 PM 57.2 °F - 48.2 °F 72% 29.97 in 10.0 mi NW 13.8 mph 21.9 mph N/A   Overcast
6:42 PM 55.4 °F - 46.4 °F 72% 29.99 in 10.0 mi NNW 15.0 mph 27.6 mph N/A   Overcast
6:53 PM 54.0 °F - 46.9 °F 77% 30.02 in 10.0 mi NW 16.1 mph 26.5 mph N/A   Overcast
7:33 PM 48.2 °F - 44.6 °F 87% 30.01 in 10.0 mi NNW 17.3 mph 26.5 mph N/A   Overcast
7:53 PM 48.0 °F - 43.0 °F 83% 30.05 in 10.0 mi NNW 16.1 mph - N/A   Overcast
8:08 PM 46.4 °F 40.1 °F 42.8 °F 87% 30.02 in 10.0 mi NNW 15.0 mph 21.9 mph N/A   Overcast
8:53 PM 45.0 °F 37.6 °F 39.0 °F 80% 30.08 in 10.0 mi NNW 17.3 mph 23.0 mph N/A   Overcast
9:34 PM 42.8 °F 34.5 °F 35.6 °F 76% 30.07 in 10.0 mi NNW 18.4 mph 24.2 mph N/A   Overcast
9:53 PM 39.9 °F 31.8 °F 34.0 °F 79% 30.12 in 10.0 mi North 15.0 mph 23.0 mph N/A   Overcast
10:53 PM 37.9 °F 27.9 °F 33.1 °F 83% 30.14 in 10.0 mi North 19.6 mph 25.3 mph N/A   Overcast
11:53 PM 35.1 °F 24.5 °F 30.9 °F 85% 30.15 in 10.0 mi North 18.4 mph - N/A   Overcast